Regional Weather Roundup
Issued by NWS

Home | Current Version | Previous Version | Graphics & Text | Print | Product List | Glossary On
Versions: 1 2 3 4 5 6 7 8 9 10 11 12 13 14 15 16 17 18 19 20 21 22 23 24 25 26 27 28 29 30 31 32 33 34 35 36 37 38 39 40 41 42 43 44 45 46 47 48 49 50
125
ASUS45 KTFX 241110
RWRMT
MONTANA REGIONAL WEATHER ROUNDUP
NATIONAL WEATHER SERVICE GREAT FALLS MT
500 AM MDT SUN SEP 24 2017

NOTE: "FAIR" INDICATES FEW OR NO CLOUDS BELOW 12000 FEET WITH NO
SIGNIFICANT WEATHER AND/OR OBSTRUCTIONS TO VISIBILITY.

MTZ001>007-043-241200-
WEST OF THE DIVIDE

CITY           SKY/WX    TMP DP  RH WIND       PRES   REMARKS
KALISPELL      MOCLDY    33  33 100 NW3       30.12S
MISSOULA       CLOUDY    35  33  92 CALM      30.15S
BUTTE          CLOUDY    32  31  96 CALM      30.11F
MULLAN PASS    CLOUDY    36  33  89 NW3       30.11S
DEER LODGE       N/A     28  27  93 W3        30.14F
EUREKA           N/A     43  39  87 CALM      30.12R
HAMILTON         N/A     32  30  93 CALM      30.14S
LIBBY            N/A     43  39  87 CALM      30.10S
$$

MTZ008-052>055-241200-
SOUTHWEST MONTANA

CITY           SKY/WX    TMP DP  RH WIND       PRES   REMARKS
BOZEMAN        CLOUDY    37  35  92 SE5       30.10S
DILLON         CLOUDY    35  26  69 CALM      30.09S
W YELLOWSTONE  CLOUDY    36  28  75 MISG      30.04S
ENNIS          CLOUDY    36  32  87 CALM      30.11S
THREE FORKS      N/A     36  28  73 NW1       30.08S
$$

MTZ009-010-012-014-046-048-049-054-241200-
EAST SLOPES AND CENTRAL MONTANA

CITY           SKY/WX    TMP DP  RH WIND       PRES   REMARKS
CUT BANK       CLEAR     30  26  85 NW5       30.08F
GREAT FALLS    CLEAR     32  29  88 SW7       30.09S WCI  26
MALMSTROM AFB  CLEAR     37  33  85 CALM      30.10S
HELENA         CLEAR     35  31  85 CALM      30.11S
BOWMANS CRNR     N/A     32  28  84 W7        30.08S WCI  25
CHOTEAU          N/A     32  28  86 W6        30.11S WCI  26
FAIRFIELD        N/A     30  26  87 CALM      30.08F
POWER            N/A     31  28  92 W3        30.08S
RAYNESFORD     MOCLDY    33  30  89 CALM      30.10S
ULM              N/A     32  29  90 CALM      30.10S
$$

MTZ011-013-016-021-045-047-050-051-241200-
NORTH CENTRAL MONTANA

CITY           SKY/WX    TMP DP  RH WIND       PRES   REMARKS
HAVRE          CLOUDY    40  38  93 CALM      30.09F
LEWISTOWN      CLOUDY    35  35 100 S5        30.09F
N BAR RANCH    CLOUDY    34  34 100 E5        30.12R
CHINOOK          N/A     37  37 100 E3        30.10S
DENTON           N/A     31  29  92 S8        30.07S WCI  24
GEYSER           N/A     35  29  79 SW10      30.09S WCI  27
JUDITH GAP     CLOUDY    38  37  94 NW9       30.09S WCI  31
WINIFRED       MOCLDY    36 N/A N/A CALM      30.09S
$$

MTZ017>020-022>027-061-062-241200-
NORTHEAST MONTANA

CITY           SKY/WX    TMP DP  RH WIND       PRES   REMARKS
GLASGOW        CLOUDY    46  41  82 CALM      30.12S
JORDAN           N/A     44  41  89 CALM      30.11S
SIDNEY         LGT RAIN  44  41  89 N9        30.11S
WOLF POINT     CLOUDY    46  43  89 CALM      30.13S
MALTA          CLOUDY    32  32 100 CALM      30.12F
PLENTYWOOD       N/A     43  43 100 CALM      30.12S
POPLAR           N/A     45  43  93 CALM      30.13R
$$

MTZ028>42-056>058-241200-
SOUTHCENTRAL AND SOUTHEAST MONTANA

CITY           SKY/WX    TMP DP  RH WIND       PRES   REMARKS
BAKER          CLOUDY    42  39  89 N13       30.07F
BILLINGS       PTCLDY    39  38  96 CALM      30.10S
LIVINGSTON     CLOUDY    38  34  85 N5        30.08S
MILES CITY     LGT RAIN  42  40  92 N6        30.10S
BIG TIMBER     CLOUDY    37  37 100 CALM      30.12R
EKALAKA          N/A     40  38  93 NW5       30.03S
HARLOWTON        N/A     39  38  97 MISG      30.09S
LAUREL           N/A     37  37 100 W6        30.11S FOG
$$

REGIONAL REPORTS...DAKOTAS

CITY           SKY/WX    TMP DP  RH WIND       PRES   REMARKS
WILLISTON      LGT RAIN  44  41  89 N12       30.11R
MINOT          LGT RAIN  47  46  97 NW10      30.04S
DICKINSON      CLOUDY    44  43  96 N13       30.03R
BEACH          DRIZZLE   41  41 100 N9        30.11S
CROSBY           N/A     43  43 100 NW6       30.13R
TIOGA          CLOUDY    43  43 100 N10       30.11R
BISMARCK       LGT RAIN  49  48  97 N7        29.99R
GRAND FORKS    RAIN      52  52 100 N16       29.90F
FARGO          RAIN      56  56 100 N7        29.87R FOG
BUFFALO SD       N/A     45  43  93 N10       29.96F
$$

REGIONAL REPORTS...WYOMING/IDAHO/WASHINGTON

CITY           SKY/WX    TMP DP  RH WIND       PRES   REMARKS
GILLETTE       CLOUDY    38  38 100 N12       30.04S FOG     WCI  30
SHERIDAN       CLOUDY    39  38  96 N6        30.08S
BUFFALO WY     CLOUDY    37  34  89 N10       30.07R WCI  30
CODY           CLOUDY    37  34  89 NE8       30.08S WCI  31
IDAHO FALLS    CLEAR     35  31  85 N8        29.98F WCI  29
SALMON         CLOUDY    33  29  85 CALM      30.12S
BOISE          CLEAR     38  33  82 S3        30.02S
SPOKANE        PTCLDY    49  43  80 S5        30.10S
$$

REGIONAL REPORTS...ALBERTA

CITY           SKY/WX    TMP DP  RH WIND       PRES   REMARKS
EDMONTON       CLOUDY    43  39  87 S5        30.02S
CALGARY        CLOUDY    39  32  75 S5        30.05F
LETHBRIDGE     CLEAR     25  23  93 W8        30.08F WCI  16
MEDICINE HAT   CLEAR     36  34  93 E3        30.09S
$$

REGIONAL REPORTS...SASKATCHEWAN

CITY           SKY/WX    TMP DP  RH WIND       PRES   REMARKS
SWIFT CURRENT    N/A     36  36 100 S8        30.11S WCI  29
REGINA         MOCLDY    34  34 100 NW3       30.15R
SASKATOON      MOCLDY    43  39  87 S3        30.14S
$$




USA.gov is the U.S. government's official web portal to all federal, state and local government web resources and services.